Location: Unspecified
(0.0000°N, 0.0000°E)
Time: 20:51:31
(UTC+00:00)

N. Korean satellite - Pass Details

Date: 22 March 2017
Orbit: 461 x 520 km, 97.2° (Epoch: 25 March)

Event Time Altitude Azimuth Distance (km) Brightness Sun altitude
Rises 19:14:57 0° 189° (S) 2,627 10.4 -17.0°
Reaches altitude 10° 19:17:19 10° 202° (SSW) 1,731 9.6 -17.6°
Maximum altitude 19:20:25 25° 259° (WSW) 1,051 9.1 -18.4°
Drops below altitude 10° 19:23:28 10° 315° (NW) 1,700 9.9 -19.2°
Sets 19:25:47 0° 329° (NNW) 2,568 10.7 -19.8°
